Time,TemperatureF,DewpointF,PressureIn,WindDirection,WindDirectionDegrees,WindSpeedMPH,WindSpeedGustMPH,Humidity,HourlyPrecipIn,Conditions,Clouds,dailyrainin,SoftwareType,DateUTC
2013-08-06 00:02:00,65.1,51.3,29.87,South,180,1.0,-999.0,61,0.00,,,0.00,Wunderground v.1.15,2013-08-06 07:02:00,
2013-08-06 00:03:00,66.5,51.7,29.87,South,179,2.0,3.0,59,0.00,,,0.00,Wunderground v.1.15,2013-08-06 07:03:00,
2013-08-06 00:07:00,65.1,51.3,29.87,South,180,1.0,-999.0,61,0.00,,,0.00,Wunderground v.1.15,2013-08-06 07:07:00,
2013-08-06 00:08:00,66.3,51.5,29.87,SSE,164,2.0,4.0,59,0.00,,,0.00,Wunderground v.1.15,2013-08-06 07:08:00,
2013-08-06 00:12:00,65.1,51.3,29.87,South,180,1.0,-999.0,61,0.00,,,0.00,Wunderground v.1.15,2013-08-06 07:12:00,
2013-08-06 00:14:00,66.0,51.7,29.87,South,188,2.0,5.0,60,0.00,,,0.00,Wunderground v.1.15,2013-08-06 07:14:00,
2013-08-06 00:17:00,65.1,51.3,29.87,South,180,1.0,-999.0,61,0.00,,,0.00,Wunderground v.1.15,2013-08-06 07:17:00,
2013-08-06 00:20:00,65.7,51.9,29.87,SSE,162,2.0,2.0,61,0.00,,,0.00,Wunderground v.1.15,2013-08-06 07:20:00,
2013-08-06 00:22:00,65.1,51.3,29.87,South,180,1.0,-999.0,61,0.00,,,0.00,Wunderground v.1.15,2013-08-06 07:22:00,
2013-08-06 00:26:00,65.4,51.6,29.87,SSE,164,1.0,2.0,61,0.00,,,0.00,Wunderground v.1.15,2013-08-06 07:26:00,
2013-08-06 00:27:00,65.1,51.3,29.87,South,180,1.0,-999.0,61,0.00,,,0.00,Wunderground v.1.15,2013-08-06 07:27:00,
2013-08-06 00:31:00,65.2,51.8,29.87,SSE,164,1.0,9.0,62,0.00,,,0.00,Wunderground v.1.15,2013-08-06 07:31:00,
2013-08-06 00:32:00,65.1,51.3,29.87,South,180,1.0,-999.0,61,0.00,,,0.00,Wunderground v.1.15,2013-08-06 07:32:00,
2013-08-06 00:37:00,65.0,50.8,29.87,SSE,158,1.0,9.0,60,0.00,,,0.00,Wunderground v.1.15,2013-08-06 07:37:00,
2013-08-06 00:42:00,65.0,50.8,29.87,South,184,2.0,2.0,60,0.00,,,0.00,Wunderground v.1.15,2013-08-06 07:42:00,
2013-08-06 00:47:00,65.1,50.9,29.87,SSE,168,2.0,6.0,60,0.00,,,0.00,Wunderground v.1.15,2013-08-06 07:47:00,
2013-08-06 00:52:00,65.2,50.5,29.87,SSE,168,3.0,4.0,59,0.00,,,0.00,Wunderground v.1.15,2013-08-06 07:52:00,
2013-08-06 00:57:00,65.4,50.2,29.87,South,190,3.0,4.0,58,0.00,,,0.00,Wunderground v.1.15,2013-08-06 07:57:00,
2013-08-06 01:02:00,65.5,50.3,29.88,South,170,3.0,4.0,58,0.00,,,0.00,Wunderground v.1.15,2013-08-06 08:02:00,
2013-08-06 01:07:00,65.5,50.3,29.87,SSE,158,2.0,-999.0,58,0.00,,,0.00,Wunderground v.1.15,2013-08-06 08:07:00,
2013-08-06 01:12:00,65.5,50.3,29.87,SSE,158,2.0,-999.0,58,0.00,,,0.00,Wunderground v.1.15,2013-08-06 08:12:00,
2013-08-06 01:17:00,64.4,50.7,29.87,South,180,2.0,-999.0,61,0.00,,,0.00,Wunderground v.1.15,2013-08-06 08:17:00,
2013-08-06 01:22:00,64.4,50.7,29.87,South,180,2.0,-999.0,61,0.00,,,0.00,Wunderground v.1.15,2013-08-06 08:22:00,
2013-08-06 01:27:00,64.4,50.7,29.87,South,180,2.0,-999.0,61,0.00,,,0.00,Wunderground v.1.15,2013-08-06 08:27:00,
2013-08-06 01:32:00,64.4,50.7,29.87,South,180,2.0,-999.0,61,0.00,,,0.00,Wunderground v.1.15,2013-08-06 08:32:00,
2013-08-06 01:37:00,64.4,50.7,29.87,South,180,2.0,-999.0,61,0.00,,,0.00,Wunderground v.1.15,2013-08-06 08:37:00,
2013-08-06 01:42:00,64.4,50.7,29.87,South,180,2.0,-999.0,61,0.00,,,0.00,Wunderground v.1.15,2013-08-06 08:42:00,
2013-08-06 01:47:00,62.4,50.9,29.87,South,180,2.0,-999.0,66,0.00,,,0.00,Wunderground v.1.15,2013-08-06 08:47:00,
2013-08-06 01:52:00,62.4,50.9,29.87,South,180,2.0,-999.0,66,0.00,,,0.00,Wunderground v.1.15,2013-08-06 08:52:00,
2013-08-06 01:57:00,62.4,50.9,29.87,South,180,2.0,-999.0,66,0.00,,,0.00,Wunderground v.1.15,2013-08-06 08:57:00,
2013-08-06 02:02:00,62.4,50.9,29.87,South,180,2.0,-999.0,66,0.00,,,0.00,Wunderground v.1.15,2013-08-06 09:02:00,
2013-08-06 02:07:00,62.4,50.9,29.87,South,180,2.0,-999.0,66,0.00,,,0.00,Wunderground v.1.15,2013-08-06 09:07:00,
2013-08-06 02:12:00,62.4,50.9,29.87,South,180,2.0,-999.0,66,0.00,,,0.00,Wunderground v.1.15,2013-08-06 09:12:00,
2013-08-06 02:17:00,61.7,50.6,29.87,SSE,158,3.0,-999.0,67,0.00,,,0.00,Wunderground v.1.15,2013-08-06 09:17:00,
2013-08-06 02:22:00,61.7,50.6,29.87,SSE,158,3.0,-999.0,67,0.00,,,0.00,Wunderground v.1.15,2013-08-06 09:22:00,
2013-08-06 02:27:00,61.7,50.6,29.87,SSE,158,3.0,-999.0,67,0.00,,,0.00,Wunderground v.1.15,2013-08-06 09:27:00,
2013-08-06 02:32:00,61.7,50.6,29.87,SSE,158,3.0,-999.0,67,0.00,,,0.00,Wunderground v.1.15,2013-08-06 09:32:00,
2013-08-06 02:37:00,61.7,50.6,29.87,SSE,158,3.0,-999.0,67,0.00,,,0.00,Wunderground v.1.15,2013-08-06 09:37:00,
2013-08-06 02:42:00,61.7,50.6,29.87,SSE,158,3.0,-999.0,67,0.00,,,0.00,Wunderground v.1.15,2013-08-06 09:42:00,
2013-08-06 02:47:00,61.4,50.7,29.87,South,180,3.0,-999.0,68,0.00,,,0.00,Wunderground v.1.15,2013-08-06 09:47:00,
2013-08-06 02:52:00,61.4,50.7,29.87,South,180,3.0,-999.0,68,0.00,,,0.00,Wunderground v.1.15,2013-08-06 09:52:00,
2013-08-06 02:57:00,61.4,50.7,29.87,South,180,3.0,-999.0,68,0.00,,,0.00,Wunderground v.1.15,2013-08-06 09:57:00,
2013-08-06 03:02:00,61.4,50.7,29.87,South,180,3.0,-999.0,68,0.00,,,0.00,Wunderground v.1.15,2013-08-06 10:02:00,
2013-08-06 03:07:00,61.4,50.7,29.87,South,180,3.0,-999.0,68,0.00,,,0.00,Wunderground v.1.15,2013-08-06 10:07:00,
2013-08-06 03:12:00,61.4,50.7,29.87,South,180,3.0,-999.0,68,0.00,,,0.00,Wunderground v.1.15,2013-08-06 10:12:00,
2013-08-06 03:17:00,60.7,50.9,29.87,South,180,3.0,-999.0,70,0.00,,,0.00,Wunderground v.1.15,2013-08-06 10:17:00,
2013-08-06 03:22:00,60.7,50.9,29.87,South,180,3.0,-999.0,70,0.00,,,0.00,Wunderground v.1.15,2013-08-06 10:22:00,
2013-08-06 03:27:00,60.7,50.9,29.87,South,180,3.0,-999.0,70,0.00,,,0.00,Wunderground v.1.15,2013-08-06 10:27:00,
2013-08-06 03:32:00,60.7,50.9,29.87,South,180,3.0,-999.0,70,0.00,,,0.00,Wunderground v.1.15,2013-08-06 10:32:00,
2013-08-06 03:37:00,60.7,50.9,29.87,South,180,3.0,-999.0,70,0.00,,,0.00,Wunderground v.1.15,2013-08-06 10:37:00,
2013-08-06 03:42:00,60.7,50.9,29.87,South,180,3.0,-999.0,70,0.00,,,0.00,Wunderground v.1.15,2013-08-06 10:42:00,
2013-08-06 03:47:00,59.4,51.1,29.87,SSE,158,2.0,-999.0,74,0.00,,,0.00,Wunderground v.1.15,2013-08-06 10:47:00,
2013-08-06 03:52:00,59.4,51.1,29.87,SSE,158,2.0,-999.0,74,0.00,,,0.00,Wunderground v.1.15,2013-08-06 10:52:00,
2013-08-06 03:57:00,59.4,51.1,29.87,SSE,158,2.0,-999.0,74,0.00,,,0.00,Wunderground v.1.15,2013-08-06 10:57:00,
2013-08-06 04:02:00,59.4,51.1,29.87,SSE,158,2.0,-999.0,74,0.00,,,0.00,Wunderground v.1.15,2013-08-06 11:02:00,
2013-08-06 04:07:00,59.4,51.1,29.87,SSE,158,2.0,-999.0,74,0.00,,,0.00,Wunderground v.1.15,2013-08-06 11:07:00,
2013-08-06 04:12:00,59.4,51.1,29.87,SSE,158,2.0,-999.0,74,0.00,,,0.00,Wunderground v.1.15,2013-08-06 11:12:00,
2013-08-06 04:17:00,58.5,51.0,29.87,SSE,158,1.0,-999.0,76,0.00,,,0.00,Wunderground v.1.15,2013-08-06 11:17:00,
2013-08-06 04:22:00,58.5,51.0,29.87,SSE,158,1.0,-999.0,76,0.00,,,0.00,Wunderground v.1.15,2013-08-06 11:22:00,
2013-08-06 04:27:00,58.5,51.0,29.87,SSE,158,1.0,-999.0,76,0.00,,,0.00,Wunderground v.1.15,2013-08-06 11:27:00,
2013-08-06 04:32:00,58.5,51.0,29.87,SSE,158,1.0,-999.0,76,0.00,,,0.00,Wunderground v.1.15,2013-08-06 11:32:00,
2013-08-06 04:37:00,58.5,51.0,29.87,SSE,158,1.0,-999.0,76,0.00,,,0.00,Wunderground v.1.15,2013-08-06 11:37:00,
2013-08-06 04:42:00,58.5,51.0,29.87,SSE,158,1.0,-999.0,76,0.00,,,0.00,Wunderground v.1.15,2013-08-06 11:42:00,
2013-08-06 04:47:00,57.9,51.1,29.87,South,180,2.0,-999.0,78,0.00,,,0.00,Wunderground v.1.15,2013-08-06 11:47:00,
2013-08-06 04:52:00,57.9,51.1,29.87,South,180,2.0,-999.0,78,0.00,,,0.00,Wunderground v.1.15,2013-08-06 11:52:00,
2013-08-06 04:57:00,57.9,51.1,29.87,South,180,2.0,-999.0,78,0.00,,,0.00,Wunderground v.1.15,2013-08-06 11:57:00,
2013-08-06 05:02:00,57.9,51.1,29.87,South,180,2.0,-999.0,78,0.00,,,0.00,Wunderground v.1.15,2013-08-06 12:02:00,
2013-08-06 05:07:00,57.9,51.1,29.87,South,180,2.0,-999.0,78,0.00,,,0.00,Wunderground v.1.15,2013-08-06 12:07:00,
2013-08-06 05:12:00,57.9,51.1,29.87,South,180,2.0,-999.0,78,0.00,,,0.00,Wunderground v.1.15,2013-08-06 12:12:00,
2013-08-06 05:17:00,57.3,50.8,29.88,SSE,158,1.0,-999.0,79,0.00,,,0.00,Wunderground v.1.15,2013-08-06 12:17:00,
2013-08-06 05:22:00,57.3,50.8,29.88,SSE,158,1.0,-999.0,79,0.00,,,0.00,Wunderground v.1.15,2013-08-06 12:22:00,
2013-08-06 05:27:00,57.3,50.8,29.88,SSE,158,1.0,-999.0,79,0.00,,,0.00,Wunderground v.1.15,2013-08-06 12:27:00,
2013-08-06 05:32:00,57.3,50.8,29.88,SSE,158,1.0,-999.0,79,0.00,,,0.00,Wunderground v.1.15,2013-08-06 12:32:00,
2013-08-06 05:37:00,57.3,50.8,29.88,SSE,158,1.0,-999.0,79,0.00,,,0.00,Wunderground v.1.15,2013-08-06 12:37:00,
2013-08-06 05:42:00,57.3,50.8,29.88,SSE,158,1.0,-999.0,79,0.00,,,0.00,Wunderground v.1.15,2013-08-06 12:42:00,
2013-08-06 05:47:00,56.6,50.8,29.89,South,180,1.0,-999.0,81,0.00,,,0.00,Wunderground v.1.15,2013-08-06 12:47:00,
2013-08-06 05:52:00,56.6,50.8,29.89,South,180,1.0,-999.0,81,0.00,,,0.00,Wunderground v.1.15,2013-08-06 12:52:00,
2013-08-06 05:57:00,56.6,50.8,29.89,South,180,1.0,-999.0,81,0.00,,,0.00,Wunderground v.1.15,2013-08-06 12:57:00,
2013-08-06 06:02:00,56.6,50.8,29.89,South,180,1.0,-999.0,81,0.00,,,0.00,Wunderground v.1.15,2013-08-06 13:02:00,
2013-08-06 06:07:00,56.6,50.8,29.89,South,180,1.0,-999.0,81,0.00,,,0.00,Wunderground v.1.15,2013-08-06 13:07:00,
2013-08-06 06:12:00,56.6,50.8,29.89,South,180,1.0,-999.0,81,0.00,,,0.00,Wunderground v.1.15,2013-08-06 13:12:00,
2013-08-06 06:17:00,56.5,51.1,29.89,South,180,2.0,-999.0,82,0.00,,,0.00,Wunderground v.1.15,2013-08-06 13:17:00,
2013-08-06 06:22:00,56.5,51.1,29.89,South,180,2.0,-999.0,82,0.00,,,0.00,Wunderground v.1.15,2013-08-06 13:22:00,
2013-08-06 06:27:00,56.5,51.1,29.89,South,180,2.0,-999.0,82,0.00,,,0.00,Wunderground v.1.15,2013-08-06 13:27:00,
2013-08-06 06:32:00,56.5,51.1,29.89,South,180,2.0,-999.0,82,0.00,,,0.00,Wunderground v.1.15,2013-08-06 13:32:00,
2013-08-06 06:37:00,56.5,51.1,29.89,South,180,2.0,-999.0,82,0.00,,,0.00,Wunderground v.1.15,2013-08-06 13:37:00,
2013-08-06 06:42:00,56.5,51.1,29.89,South,180,2.0,-999.0,82,0.00,,,0.00,Wunderground v.1.15,2013-08-06 13:42:00,
2013-08-06 06:47:00,56.1,51.0,29.90,South,180,3.0,-999.0,83,0.00,,,0.00,Wunderground v.1.15,2013-08-06 13:47:00,
2013-08-06 06:52:00,56.1,51.0,29.90,South,180,3.0,-999.0,83,0.00,,,0.00,Wunderground v.1.15,2013-08-06 13:52:00,
2013-08-06 06:57:00,56.1,51.0,29.90,South,180,3.0,-999.0,83,0.00,,,0.00,Wunderground v.1.15,2013-08-06 13:57:00,
2013-08-06 07:02:00,56.1,51.0,29.90,South,180,3.0,-999.0,83,0.00,,,0.00,Wunderground v.1.15,2013-08-06 14:02:00,
2013-08-06 07:07:00,56.1,51.0,29.90,South,180,3.0,-999.0,83,0.00,,,0.00,Wunderground v.1.15,2013-08-06 14:07:00,
2013-08-06 07:08:00,56.0,51.2,29.90,SSE,165,3.0,7.0,84,0.00,,,0.00,Wunderground v.1.15,2013-08-06 14:08:00,
2013-08-06 07:12:00,56.1,51.0,29.90,South,180,3.0,-999.0,83,0.00,,,0.00,Wunderground v.1.15,2013-08-06 14:12:00,
2013-08-06 07:13:00,56.0,51.2,29.90,SSE,166,3.0,5.0,84,0.00,,,0.00,Wunderground v.1.15,2013-08-06 14:13:00,
2013-08-06 07:17:00,56.0,51.6,29.91,SSE,158,3.0,-999.0,85,0.00,,,0.00,Wunderground v.1.15,2013-08-06 14:17:00,
2013-08-06 07:19:00,56.0,51.2,29.90,SSE,162,3.0,7.0,84,0.00,,,0.00,Wunderground v.1.15,2013-08-06 14:19:00,
2013-08-06 07:22:00,56.0,51.6,29.91,SSE,158,3.0,-999.0,85,0.00,,,0.00,Wunderground v.1.15,2013-08-06 14:22:00,
2013-08-06 07:24:00,56.0,51.2,29.90,South,182,4.0,7.0,84,0.00,,,0.00,Wunderground v.1.15,2013-08-06 14:24:00,
2013-08-06 07:27:00,56.0,51.6,29.91,SSE,158,3.0,-999.0,85,0.00,,,0.00,Wunderground v.1.15,2013-08-06 14:27:00,
2013-08-06 07:30:00,56.0,51.6,29.91,SSW,210,4.0,4.0,85,0.00,,,0.00,Wunderground v.1.15,2013-08-06 14:30:00,
2013-08-06 07:32:00,56.0,51.6,29.91,SSE,158,3.0,-999.0,85,0.00,,,0.00,Wunderground v.1.15,2013-08-06 14:32:00,
2013-08-06 07:35:00,56.1,51.7,29.91,SSW,210,3.0,8.0,85,0.00,,,0.00,Wunderground v.1.15,2013-08-06 14:35:00,
2013-08-06 07:37:00,56.0,51.6,29.91,SSE,158,3.0,-999.0,85,0.00,,,0.00,Wunderground v.1.15,2013-08-06 14:37:00,
2013-08-06 07:40:00,56.2,51.7,29.91,SSE,154,3.0,7.0,85,0.00,,,0.00,Wunderground v.1.15,2013-08-06 14:40:00,
2013-08-06 07:42:00,56.0,51.6,29.91,SSE,158,3.0,-999.0,85,0.00,,,0.00,Wunderground v.1.15,2013-08-06 14:42:00,
2013-08-06 07:46:00,56.4,51.6,29.91,South,172,3.0,7.0,84,0.00,,,0.00,Wunderground v.1.15,2013-08-06 14:46:00,
2013-08-06 07:47:00,57.6,52.1,29.92,South,180,3.0,-999.0,82,0.00,,,0.00,Wunderground v.1.15,2013-08-06 14:47:00,
2013-08-06 07:51:00,56.7,51.9,29.91,South,185,4.0,4.0,84,0.00,,,0.00,Wunderground v.1.15,2013-08-06 14:51:00,
2013-08-06 07:52:00,57.6,52.1,29.92,South,180,3.0,-999.0,82,0.00,,,0.00,Wunderground v.1.15,2013-08-06 14:52:00,
2013-08-06 07:56:00,57.0,52.2,29.91,South,169,3.0,4.0,84,0.00,,,0.00,Wunderground v.1.15,2013-08-06 14:56:00,
2013-08-06 07:57:00,57.6,52.1,29.92,South,180,3.0,-999.0,82,0.00,,,0.00,Wunderground v.1.15,2013-08-06 14:57:00,
2013-08-06 08:02:00,57.5,52.4,29.91,SSW,206,3.0,6.0,83,0.00,,,0.00,Wunderground v.1.15,2013-08-06 15:02:00,
2013-08-06 08:07:00,57.6,52.1,29.92,South,180,3.0,-999.0,82,0.00,,,0.00,Wunderground v.1.15,2013-08-06 15:07:00,
2013-08-06 08:08:00,57.8,52.3,29.92,South,180,3.0,6.0,82,0.00,,,0.00,Wunderground v.1.15,2013-08-06 15:08:00,
2013-08-06 08:12:00,57.6,52.1,29.92,South,180,3.0,-999.0,82,0.00,,,0.00,Wunderground v.1.15,2013-08-06 15:12:00,
2013-08-06 08:13:00,58.2,52.4,29.92,South,187,3.0,5.0,81,0.00,,,0.00,Wunderground v.1.15,2013-08-06 15:13:00,
2013-08-06 08:17:00,60.2,53.0,29.92,South,180,3.0,-999.0,77,0.00,,,0.00,Wunderground v.1.15,2013-08-06 15:17:00,
2013-08-06 08:19:00,58.7,52.5,29.92,South,178,3.0,5.0,80,0.00,,,0.00,Wunderground v.1.15,2013-08-06 15:19:00,
2013-08-06 08:22:00,60.2,53.0,29.92,South,180,3.0,-999.0,77,0.00,,,0.00,Wunderground v.1.15,2013-08-06 15:22:00,
2013-08-06 08:24:00,59.4,52.9,29.92,South,185,3.0,5.0,79,0.00,,,0.00,Wunderground v.1.15,2013-08-06 15:24:00,
2013-08-06 08:27:00,60.2,53.0,29.92,South,180,3.0,-999.0,77,0.00,,,0.00,Wunderground v.1.15,2013-08-06 15:27:00,
2013-08-06 08:29:00,59.9,52.7,29.92,SSW,201,4.0,7.0,77,0.00,,,0.00,Wunderground v.1.15,2013-08-06 15:29:00,
2013-08-06 08:32:00,60.2,53.0,29.92,South,180,3.0,-999.0,77,0.00,,,0.00,Wunderground v.1.15,2013-08-06 15:32:00,
2013-08-06 08:35:00,60.3,52.7,29.92,SSW,193,4.0,10.0,76,0.00,,,0.00,Wunderground v.1.15,2013-08-06 15:35:00,
2013-08-06 08:37:00,60.2,53.0,29.92,South,180,3.0,-999.0,77,0.00,,,0.00,Wunderground v.1.15,2013-08-06 15:37:00,
2013-08-06 08:40:00,60.7,52.7,29.92,SSW,208,3.0,3.0,75,0.00,,,0.00,Wunderground v.1.15,2013-08-06 15:40:00,
2013-08-06 08:42:00,60.2,53.0,29.92,South,180,3.0,-999.0,77,0.00,,,0.00,Wunderground v.1.15,2013-08-06 15:42:00,
2013-08-06 08:46:00,61.1,53.1,29.92,SSW,197,3.0,5.0,75,0.00,,,0.00,Wunderground v.1.15,2013-08-06 15:46:00,
2013-08-06 08:47:00,62.7,53.5,29.92,SSW,203,3.0,-999.0,72,0.00,,,0.00,Wunderground v.1.15,2013-08-06 15:47:00,
2013-08-06 08:52:00,61.5,53.1,29.92,South,170,3.0,4.0,74,0.00,,,0.00,Wunderground v.1.15,2013-08-06 15:52:00,
2013-08-06 08:57:00,62.0,53.6,29.92,SW,223,3.0,4.0,74,0.00,,,0.00,Wunderground v.1.15,2013-08-06 15:57:00,
2013-08-06 09:02:00,62.6,53.4,29.92,South,189,2.0,6.0,72,0.00,,,0.00,Wunderground v.1.15,2013-08-06 16:02:00,
2013-08-06 09:07:00,63.2,53.6,29.92,SSW,208,3.0,6.0,71,0.00,,,0.00,Wunderground v.1.15,2013-08-06 16:07:00,
2013-08-06 09:12:00,62.7,53.5,29.92,SSW,203,3.0,-999.0,72,0.00,,,0.00,Wunderground v.1.15,2013-08-06 16:12:00,
2013-08-06 09:13:00,63.6,53.2,29.92,SW,232,3.0,7.0,69,0.00,,,0.00,Wunderground v.1.15,2013-08-06 16:13:00,
2013-08-06 09:17:00,65.3,53.2,29.92,SSW,203,3.0,-999.0,65,0.00,,,0.00,Wunderground v.1.15,2013-08-06 16:17:00,
2013-08-06 09:18:00,63.8,53.4,29.92,South,182,3.0,7.0,69,0.00,,,0.00,Wunderground v.1.15,2013-08-06 16:18:00,
2013-08-06 09:22:00,65.3,53.2,29.92,SSW,203,3.0,-999.0,65,0.00,,,0.00,Wunderground v.1.15,2013-08-06 16:22:00,
2013-08-06 09:24:00,64.5,53.7,29.92,South,179,2.0,4.0,68,0.00,,,0.00,Wunderground v.1.15,2013-08-06 16:24:00,
2013-08-06 09:27:00,65.3,53.2,29.92,SSW,203,3.0,-999.0,65,0.00,,,0.00,Wunderground v.1.15,2013-08-06 16:27:00,
2013-08-06 09:29:00,65.1,53.5,29.92,SSW,201,3.0,4.0,66,0.00,,,0.00,Wunderground v.1.15,2013-08-06 16:29:00,
2013-08-06 09:32:00,65.3,53.2,29.92,SSW,203,3.0,-999.0,65,0.00,,,0.00,Wunderground v.1.15,2013-08-06 16:32:00,
2013-08-06 09:34:00,65.3,53.2,29.92,SSW,199,4.0,9.0,65,0.00,,,0.00,Wunderground v.1.15,2013-08-06 16:34:00,
2013-08-06 09:37:00,65.3,53.2,29.92,SSW,203,3.0,-999.0,65,0.00,,,0.00,Wunderground v.1.15,2013-08-06 16:37:00,
2013-08-06 09:40:00,65.8,53.7,29.92,SW,229,3.0,3.0,65,0.00,,,0.00,Wunderground v.1.15,2013-08-06 16:40:00,
2013-08-06 09:42:00,65.3,53.2,29.92,SSW,203,3.0,-999.0,65,0.00,,,0.00,Wunderground v.1.15,2013-08-06 16:42:00,
2013-08-06 09:46:00,66.2,53.2,29.92,SSW,195,3.0,5.0,63,0.00,,,0.00,Wunderground v.1.15,2013-08-06 16:46:00,
2013-08-06 09:47:00,68.1,54.1,29.92,SSW,203,3.0,-999.0,61,0.00,,,0.00,Wunderground v.1.15,2013-08-06 16:47:00,
2013-08-06 09:51:00,66.5,53.5,29.92,SW,233,4.0,4.0,63,0.00,,,0.00,Wunderground v.1.15,2013-08-06 16:51:00,
2013-08-06 09:52:00,68.1,54.1,29.92,SSW,203,3.0,-999.0,61,0.00,,,0.00,Wunderground v.1.15,2013-08-06 16:52:00,
2013-08-06 09:56:00,66.9,53.5,29.92,SSW,198,3.0,4.0,62,0.00,,,0.00,Wunderground v.1.15,2013-08-06 16:56:00,
2013-08-06 09:57:00,68.1,54.1,29.92,SSW,203,3.0,-999.0,61,0.00,,,0.00,Wunderground v.1.15,2013-08-06 16:57:00,
2013-08-06 10:02:00,67.9,53.5,29.92,West,264,3.0,5.0,60,0.00,,,0.00,Wunderground v.1.15,2013-08-06 17:02:00,
2013-08-06 10:07:00,68.1,54.1,29.92,SSW,203,3.0,-999.0,61,0.00,,,0.00,Wunderground v.1.15,2013-08-06 17:07:00,
2013-08-06 10:08:00,68.6,54.2,29.92,South,189,3.0,7.0,60,0.00,,,0.00,Wunderground v.1.15,2013-08-06 17:08:00,
2013-08-06 10:12:00,68.1,54.1,29.92,SSW,203,3.0,-999.0,61,0.00,,,0.00,Wunderground v.1.15,2013-08-06 17:12:00,
2013-08-06 10:13:00,69.4,54.4,29.92,South,177,4.0,9.0,59,0.00,,,0.00,Wunderground v.1.15,2013-08-06 17:13:00,
2013-08-06 10:17:00,71.3,53.3,29.92,SSE,158,3.0,-999.0,53,0.00,,,0.00,Wunderground v.1.15,2013-08-06 17:17:00,
2013-08-06 10:18:00,70.1,54.2,29.92,SSE,163,3.0,9.0,57,0.00,,,0.00,Wunderground v.1.15,2013-08-06 17:18:00,
2013-08-06 10:22:00,71.3,53.3,29.92,SSE,158,3.0,-999.0,53,0.00,,,0.00,Wunderground v.1.15,2013-08-06 17:22:00,
2013-08-06 10:23:00,70.7,53.7,29.92,WSW,238,3.0,4.0,55,0.00,,,0.00,Wunderground v.1.15,2013-08-06 17:23:00,
2013-08-06 10:27:00,71.3,53.3,29.92,SSE,158,3.0,-999.0,53,0.00,,,0.00,Wunderground v.1.15,2013-08-06 17:27:00,
2013-08-06 10:29:00,71.1,54.6,29.92,South,171,3.0,5.0,56,0.00,,,0.00,Wunderground v.1.15,2013-08-06 17:29:00,
2013-08-06 10:31:00,71.2,53.7,29.92,WSW,250,3.0,9.0,54,0.00,,,0.00,Wunderground v.1.15,2013-08-06 17:31:00,
2013-08-06 10:32:00,71.3,53.3,29.92,SSE,158,3.0,-999.0,53,0.00,,,0.00,Wunderground v.1.15,2013-08-06 17:32:00,
2013-08-06 10:36:00,71.2,53.2,29.92,SSW,199,4.0,10.0,53,0.00,,,0.00,Wunderground v.1.15,2013-08-06 17:36:00,
2013-08-06 10:37:00,71.3,53.3,29.92,SSE,158,3.0,-999.0,53,0.00,,,0.00,Wunderground v.1.15,2013-08-06 17:37:00,
2013-08-06 10:41:00,71.2,53.7,29.92,SW,216,4.0,6.0,54,0.00,,,0.00,Wunderground v.1.15,2013-08-06 17:41:00,
2013-08-06 10:42:00,71.3,53.3,29.92,SSE,158,3.0,-999.0,53,0.00,,,0.00,Wunderground v.1.15,2013-08-06 17:42:00,
2013-08-06 10:46:00,71.6,53.6,29.92,South,185,4.0,6.0,53,0.00,,,0.00,Wunderground v.1.15,2013-08-06 17:46:00,
2013-08-06 10:47:00,73.7,53.3,29.92,SSW,203,3.0,-999.0,49,0.00,,,0.00,Wunderground v.1.15,2013-08-06 17:47:00,
2013-08-06 10:51:00,72.1,53.5,29.92,SW,225,3.0,6.0,52,0.00,,,0.00,Wunderground v.1.15,2013-08-06 17:51:00,
2013-08-06 10:52:00,73.7,53.3,29.92,SSW,203,3.0,-999.0,49,0.00,,,0.00,Wunderground v.1.15,2013-08-06 17:52:00,
2013-08-06 10:56:00,72.8,54.7,29.92,SW,230,2.0,6.0,53,0.00,,,0.00,Wunderground v.1.15,2013-08-06 17:56:00,
2013-08-06 10:57:00,73.7,53.3,29.92,SSW,203,3.0,-999.0,49,0.00,,,0.00,Wunderground v.1.15,2013-08-06 17:57:00,
2013-08-06 11:02:00,73.5,53.7,29.92,SSE,162,3.0,5.0,50,0.00,,,0.00,Wunderground v.1.15,2013-08-06 18:02:00,
2013-08-06 11:07:00,73.7,53.3,29.92,SSW,203,3.0,-999.0,49,0.00,,,0.00,Wunderground v.1.15,2013-08-06 18:07:00,
2013-08-06 11:08:00,74.1,53.7,29.92,SW,214,3.0,5.0,49,0.00,,,0.00,Wunderground v.1.15,2013-08-06 18:08:00,
2013-08-06 11:12:00,73.7,53.3,29.92,SSW,203,3.0,-999.0,49,0.00,,,0.00,Wunderground v.1.15,2013-08-06 18:12:00,
2013-08-06 11:14:00,74.6,53.0,29.92,West,264,3.0,4.0,47,0.00,,,0.00,Wunderground v.1.15,2013-08-06 18:14:00,
2013-08-06 11:17:00,75.6,53.9,29.91,WSW,248,3.0,-999.0,47,0.00,,,0.00,Wunderground v.1.15,2013-08-06 18:17:00,
2013-08-06 11:19:00,74.9,53.9,29.91,SSE,164,3.0,4.0,48,0.00,,,0.00,Wunderground v.1.15,2013-08-06 18:19:00,
2013-08-06 11:22:00,75.6,53.9,29.91,WSW,248,3.0,-999.0,47,0.00,,,0.00,Wunderground v.1.15,2013-08-06 18:22:00,
2013-08-06 11:25:00,75.4,53.2,29.91,South,170,2.0,5.0,46,0.00,,,0.00,Wunderground v.1.15,2013-08-06 18:25:00,
2013-08-06 11:27:00,75.6,53.9,29.91,WSW,248,3.0,-999.0,47,0.00,,,0.00,Wunderground v.1.15,2013-08-06 18:27:00,
2013-08-06 11:31:00,75.4,52.6,29.91,South,183,3.0,10.0,45,0.00,,,0.00,Wunderground v.1.15,2013-08-06 18:31:00,
2013-08-06 11:32:00,75.6,53.9,29.91,WSW,248,3.0,-999.0,47,0.00,,,0.00,Wunderground v.1.15,2013-08-06 18:32:00,
2013-08-06 11:36:00,76.0,53.7,29.91,South,188,3.0,10.0,46,0.00,,,0.00,Wunderground v.1.15,2013-08-06 18:36:00,
2013-08-06 11:37:00,75.6,53.9,29.91,WSW,248,3.0,-999.0,47,0.00,,,0.00,Wunderground v.1.15,2013-08-06 18:37:00,
2013-08-06 11:42:00,76.9,53.9,29.91,SSW,206,3.0,5.0,45,0.00,,,0.00,Wunderground v.1.15,2013-08-06 18:42:00,
2013-08-06 11:47:00,77.4,55.0,29.91,WNW,287,3.0,9.0,46,0.00,,,0.00,Wunderground v.1.15,2013-08-06 18:47:00,
2013-08-06 11:52:00,77.8,54.8,29.91,SW,229,3.0,5.0,45,0.00,,,0.00,Wunderground v.1.15,2013-08-06 18:52:00,
2013-08-06 11:57:00,77.8,54.1,29.91,WSW,248,3.0,-999.0,44,0.00,,,0.00,Wunderground v.1.15,2013-08-06 18:57:00,
2013-08-06 11:58:00,78.0,54.3,29.91,SW,217,3.0,6.0,44,0.00,,,0.00,Wunderground v.1.15,2013-08-06 18:58:00,
2013-08-06 12:02:00,77.8,54.1,29.91,WSW,248,3.0,-999.0,44,0.00,,,0.00,Wunderground v.1.15,2013-08-06 19:02:00,
2013-08-06 12:03:00,77.8,54.1,29.91,SW,232,3.0,7.0,44,0.00,,,0.00,Wunderground v.1.15,2013-08-06 19:03:00,
2013-08-06 12:07:00,77.8,54.1,29.91,WSW,248,3.0,-999.0,44,0.00,,,0.00,Wunderground v.1.15,2013-08-06 19:07:00,
2013-08-06 12:08:00,78.1,53.8,29.91,WSW,254,3.0,8.0,43,0.00,,,0.00,Wunderground v.1.15,2013-08-06 19:08:00,
2013-08-06 12:12:00,77.8,54.1,29.91,WSW,248,3.0,-999.0,44,0.00,,,0.00,Wunderground v.1.15,2013-08-06 19:12:00,
2013-08-06 12:13:00,78.4,53.4,29.91,South,183,3.0,5.0,42,0.00,,,0.00,Wunderground v.1.15,2013-08-06 19:13:00,
2013-08-06 12:17:00,79.8,52.6,29.90,SW,225,3.0,-999.0,39,0.00,,,0.00,Wunderground v.1.15,2013-08-06 19:17:00,
2013-08-06 12:19:00,78.7,53.7,29.91,WSW,237,1.0,5.0,42,0.00,,,0.00,Wunderground v.1.15,2013-08-06 19:19:00,
2013-08-06 12:22:00,79.8,52.6,29.90,SW,225,3.0,-999.0,39,0.00,,,0.00,Wunderground v.1.15,2013-08-06 19:22:00,
2013-08-06 12:24:00,79.1,54.0,29.90,SW,220,2.0,3.0,42,0.00,,,0.00,Wunderground v.1.15,2013-08-06 19:24:00,
2013-08-06 12:27:00,79.8,52.6,29.90,SW,225,3.0,-999.0,39,0.00,,,0.00,Wunderground v.1.15,2013-08-06 19:27:00,
2013-08-06 12:30:00,79.8,52.6,29.90,SSW,202,3.0,3.0,39,0.00,,,0.00,Wunderground v.1.15,2013-08-06 19:30:00,
2013-08-06 12:32:00,79.8,52.6,29.90,SW,225,3.0,-999.0,39,0.00,,,0.00,Wunderground v.1.15,2013-08-06 19:32:00,
2013-08-06 12:35:00,79.8,53.3,29.90,South,185,3.0,9.0,40,0.00,,,0.00,Wunderground v.1.15,2013-08-06 19:35:00,
2013-08-06 12:37:00,79.8,52.6,29.90,SW,225,3.0,-999.0,39,0.00,,,0.00,Wunderground v.1.15,2013-08-06 19:37:00,
2013-08-06 12:40:00,80.6,53.4,29.90,WSW,239,2.0,2.0,39,0.00,,,0.00,Wunderground v.1.15,2013-08-06 19:40:00,
2013-08-06 12:42:00,79.8,52.6,29.90,SW,225,3.0,-999.0,39,0.00,,,0.00,Wunderground v.1.15,2013-08-06 19:42:00,
2013-08-06 12:46:00,81.3,53.3,29.90,South,190,2.0,5.0,38,0.00,,,0.00,Wunderground v.1.15,2013-08-06 19:46:00,
2013-08-06 12:47:00,82.9,54.0,29.89,SSW,203,2.0,-999.0,37,0.00,,,0.00,Wunderground v.1.15,2013-08-06 19:47:00,
2013-08-06 12:51:00,81.7,52.9,29.90,SSW,205,2.0,3.0,37,0.00,,,0.00,Wunderground v.1.15,2013-08-06 19:51:00,
2013-08-06 12:52:00,82.9,54.0,29.89,SSW,203,2.0,-999.0,37,0.00,,,0.00,Wunderground v.1.15,2013-08-06 19:52:00,
2013-08-06 12:57:00,82.2,53.3,29.90,SSW,199,2.0,7.0,37,0.00,,,0.00,Wunderground v.1.15,2013-08-06 19:57:00,
2013-08-06 13:02:00,82.9,54.0,29.89,SSW,203,2.0,-999.0,37,0.00,,,0.00,Wunderground v.1.15,2013-08-06 20:02:00,
2013-08-06 13:03:00,82.9,54.0,29.89,WSW,256,2.0,5.0,37,0.00,,,0.00,Wunderground v.1.15,2013-08-06 20:03:00,
2013-08-06 13:07:00,82.9,54.0,29.89,SSW,203,2.0,-999.0,37,0.00,,,0.00,Wunderground v.1.15,2013-08-06 20:07:00,
2013-08-06 13:08:00,83.3,52.8,29.89,WSW,242,2.0,6.0,35,0.00,,,0.00,Wunderground v.1.15,2013-08-06 20:08:00,
2013-08-06 13:12:00,82.9,54.0,29.89,SSW,203,2.0,-999.0,37,0.00,,,0.00,Wunderground v.1.15,2013-08-06 20:12:00,
2013-08-06 13:13:00,83.4,54.4,29.89,SSW,196,2.0,4.0,37,0.00,,,0.00,Wunderground v.1.15,2013-08-06 20:13:00,
2013-08-06 13:17:00,84.4,53.8,29.89,WSW,248,2.0,-999.0,35,0.00,,,0.00,Wunderground v.1.15,2013-08-06 20:17:00,
2013-08-06 13:19:00,83.4,51.3,29.89,SSW,213,3.0,7.0,33,0.00,,,0.00,Wunderground v.1.15,2013-08-06 20:19:00,
2013-08-06 13:22:00,84.4,53.8,29.89,WSW,248,2.0,-999.0,35,0.00,,,0.00,Wunderground v.1.15,2013-08-06 20:22:00,
2013-08-06 13:24:00,83.8,54.0,29.89,West,270,2.0,3.0,36,0.00,,,0.00,Wunderground v.1.15,2013-08-06 20:24:00,
2013-08-06 13:27:00,84.4,53.8,29.89,WSW,248,2.0,-999.0,35,0.00,,,0.00,Wunderground v.1.15,2013-08-06 20:27:00,
2013-08-06 13:30:00,84.0,53.4,29.89,SSW,195,2.0,2.0,35,0.00,,,0.00,Wunderground v.1.15,2013-08-06 20:30:00,
2013-08-06 13:32:00,84.4,53.8,29.89,WSW,248,2.0,-999.0,35,0.00,,,0.00,Wunderground v.1.15,2013-08-06 20:32:00,
2013-08-06 13:35:00,84.7,54.0,29.89,South,187,2.0,11.0,35,0.00,,,0.00,Wunderground v.1.15,2013-08-06 20:35:00,
2013-08-06 13:37:00,84.4,53.8,29.89,WSW,248,2.0,-999.0,35,0.00,,,0.00,Wunderground v.1.15,2013-08-06 20:37:00,
2013-08-06 13:41:00,85.6,53.2,29.89,SSE,158,2.0,2.0,33,0.00,,,0.00,Wunderground v.1.15,2013-08-06 20:41:00,
2013-08-06 13:42:00,84.4,53.8,29.89,WSW,248,2.0,-999.0,35,0.00,,,0.00,Wunderground v.1.15,2013-08-06 20:42:00,
2013-08-06 13:44:00,85.9,51.8,29.89,West,262,2.0,4.0,31,0.00,,,0.00,Wunderground v.1.15,2013-08-06 20:44:00,
2013-08-06 13:47:00,87.0,53.6,29.88,WSW,248,3.0,-999.0,32,0.00,,,0.00,Wunderground v.1.15,2013-08-06 20:47:00,
2013-08-06 13:49:00,86.2,52.9,29.89,West,265,3.0,5.0,32,0.00,,,0.00,Wunderground v.1.15,2013-08-06 20:49:00,
2013-08-06 13:52:00,87.0,53.6,29.88,WSW,248,3.0,-999.0,32,0.00,,,0.00,Wunderground v.1.15,2013-08-06 20:52:00,
2013-08-06 13:54:00,86.5,54.0,29.89,West,262,3.0,3.0,33,0.00,,,0.00,Wunderground v.1.15,2013-08-06 20:54:00,
2013-08-06 13:57:00,87.0,53.6,29.88,WSW,248,3.0,-999.0,32,0.00,,,0.00,Wunderground v.1.15,2013-08-06 20:57:00,
2013-08-06 14:00:00,87.2,53.7,29.89,SSW,210,3.0,3.0,32,0.00,,,0.00,Wunderground v.1.15,2013-08-06 21:00:00,
2013-08-06 14:02:00,87.0,53.6,29.88,WSW,248,3.0,-999.0,32,0.00,,,0.00,Wunderground v.1.15,2013-08-06 21:02:00,
2013-08-06 14:06:00,86.8,52.5,29.88,West,259,3.0,9.0,31,0.00,,,0.00,Wunderground v.1.15,2013-08-06 21:06:00,
2013-08-06 14:07:00,87.0,53.6,29.88,WSW,248,3.0,-999.0,32,0.00,,,0.00,Wunderground v.1.15,2013-08-06 21:07:00,
2013-08-06 14:11:00,86.7,53.3,29.88,SSW,210,3.0,4.0,32,0.00,,,0.00,Wunderground v.1.15,2013-08-06 21:11:00,
2013-08-06 14:12:00,87.0,53.6,29.88,WSW,248,3.0,-999.0,32,0.00,,,0.00,Wunderground v.1.15,2013-08-06 21:12:00,
2013-08-06 14:17:00,87.0,52.7,29.88,NNW,338,2.0,8.0,31,0.00,,,0.00,Wunderground v.1.15,2013-08-06 21:17:00,
2013-08-06 14:22:00,87.4,52.2,29.88,WSW,247,2.0,5.0,30,0.00,,,0.00,Wunderground v.1.15,2013-08-06 21:22:00,
2013-08-06 14:27:00,87.3,52.1,29.88,SW,215,2.0,5.0,30,0.00,,,0.00,Wunderground v.1.15,2013-08-06 21:27:00,
2013-08-06 14:32:00,87.2,51.1,29.87,SSW,206,2.0,10.0,29,0.00,,,0.00,Wunderground v.1.15,2013-08-06 21:32:00,
2013-08-06 14:37:00,87.4,53.1,29.87,South,183,2.0,10.0,31,0.00,,,0.00,Wunderground v.1.15,2013-08-06 21:37:00,
2013-08-06 14:42:00,87.2,51.1,29.87,West,270,2.0,-999.0,29,0.00,,,0.00,Wunderground v.1.15,2013-08-06 21:42:00,
2013-08-06 14:43:00,88.0,52.7,29.87,WSW,256,2.0,2.0,30,0.00,,,0.00,Wunderground v.1.15,2013-08-06 21:43:00,
2013-08-06 14:47:00,89.0,50.7,29.86,West,270,2.0,-999.0,27,0.00,,,0.00,Wunderground v.1.15,2013-08-06 21:47:00,
2013-08-06 14:48:00,88.4,52.1,29.87,West,277,2.0,4.0,29,0.00,,,0.00,Wunderground v.1.15,2013-08-06 21:48:00,
2013-08-06 14:52:00,89.0,50.7,29.86,West,270,2.0,-999.0,27,0.00,,,0.00,Wunderground v.1.15,2013-08-06 21:52:00,
2013-08-06 14:54:00,88.8,52.4,29.87,WSW,257,2.0,7.0,29,0.00,,,0.00,Wunderground v.1.15,2013-08-06 21:54:00,
2013-08-06 14:57:00,89.0,50.7,29.86,West,270,2.0,-999.0,27,0.00,,,0.00,Wunderground v.1.15,2013-08-06 21:57:00,
2013-08-06 14:59:00,88.9,52.5,29.86,West,261,2.0,7.0,29,0.00,,,0.00,Wunderground v.1.15,2013-08-06 21:59:00,
2013-08-06 15:02:00,89.0,50.7,29.86,West,270,2.0,-999.0,27,0.00,,,0.00,Wunderground v.1.15,2013-08-06 22:02:00,
2013-08-06 15:04:00,88.9,50.6,29.86,SSW,203,2.0,5.0,27,0.00,,,0.00,Wunderground v.1.15,2013-08-06 22:04:00,
2013-08-06 15:07:00,89.0,50.7,29.86,West,270,2.0,-999.0,27,0.00,,,0.00,Wunderground v.1.15,2013-08-06 22:07:00,
2013-08-06 15:09:00,89.2,51.8,29.86,South,187,3.0,5.0,28,0.00,,,0.00,Wunderground v.1.15,2013-08-06 22:09:00,
2013-08-06 15:12:00,89.0,50.7,29.86,West,270,2.0,-999.0,27,0.00,,,0.00,Wunderground v.1.15,2013-08-06 22:12:00,
2013-08-06 15:15:00,89.6,51.2,29.86,SSE,164,2.0,4.0,27,0.00,,,0.00,Wunderground v.1.15,2013-08-06 22:15:00,
2013-08-06 15:17:00,89.9,52.4,29.86,South,180,3.0,-999.0,28,0.00,,,0.00,Wunderground v.1.15,2013-08-06 22:17:00,
2013-08-06 15:20:00,89.5,52.1,29.86,SSE,162,3.0,4.0,28,0.00,,,0.00,Wunderground v.1.15,2013-08-06 22:20:00,
2013-08-06 15:22:00,89.9,52.4,29.86,South,180,3.0,-999.0,28,0.00,,,0.00,Wunderground v.1.15,2013-08-06 22:22:00,
2013-08-06 15:25:00,89.7,53.2,29.86,West,261,3.0,7.0,29,0.00,,,0.00,Wunderground v.1.15,2013-08-06 22:25:00,
2013-08-06 15:27:00,89.9,52.4,29.86,South,180,3.0,-999.0,28,0.00,,,0.00,Wunderground v.1.15,2013-08-06 22:27:00,
2013-08-06 15:30:00,90.2,52.7,29.86,West,269,2.0,5.0,28,0.00,,,0.00,Wunderground v.1.15,2013-08-06 22:30:00,
2013-08-06 15:32:00,89.9,52.4,29.86,South,180,3.0,-999.0,28,0.00,,,0.00,Wunderground v.1.15,2013-08-06 22:32:00,
2013-08-06 15:35:00,89.7,54.1,29.86,West,265,3.0,11.0,30,0.00,,,0.00,Wunderground v.1.15,2013-08-06 22:35:00,
2013-08-06 15:37:00,89.9,52.4,29.86,South,180,3.0,-999.0,28,0.00,,,0.00,Wunderground v.1.15,2013-08-06 22:37:00,
2013-08-06 15:40:00,89.5,53.0,29.86,West,267,3.0,4.0,29,0.00,,,0.00,Wunderground v.1.15,2013-08-06 22:40:00,
2013-08-06 15:42:00,89.9,52.4,29.86,South,180,3.0,-999.0,28,0.00,,,0.00,Wunderground v.1.15,2013-08-06 22:42:00,
2013-08-06 15:46:00,89.5,52.1,29.85,WSW,254,3.0,5.0,28,0.00,,,0.00,Wunderground v.1.15,2013-08-06 22:46:00,
2013-08-06 15:47:00,89.4,51.0,29.85,WSW,248,3.0,-999.0,27,0.00,,,0.00,Wunderground v.1.15,2013-08-06 22:47:00,
2013-08-06 15:51:00,89.2,51.8,29.85,SSW,209,3.0,4.0,28,0.00,,,0.00,Wunderground v.1.15,2013-08-06 22:51:00,
2013-08-06 15:52:00,89.4,51.0,29.85,WSW,248,3.0,-999.0,27,0.00,,,0.00,Wunderground v.1.15,2013-08-06 22:52:00,
2013-08-06 15:56:00,89.4,52.0,29.85,West,266,3.0,6.0,28,0.00,,,0.00,Wunderground v.1.15,2013-08-06 22:56:00,
2013-08-06 15:57:00,89.4,51.0,29.85,WSW,248,3.0,-999.0,27,0.00,,,0.00,Wunderground v.1.15,2013-08-06 22:57:00,
2013-08-06 16:02:00,89.5,51.1,29.85,WSW,244,3.0,4.0,27,0.00,,,0.00,Wunderground v.1.15,2013-08-06 23:02:00,
2013-08-06 16:07:00,89.4,51.0,29.85,WSW,248,3.0,-999.0,27,0.00,,,0.00,Wunderground v.1.15,2013-08-06 23:07:00,
2013-08-06 16:08:00,89.4,52.0,29.85,SW,220,2.0,4.0,28,0.00,,,0.00,Wunderground v.1.15,2013-08-06 23:08:00,
2013-08-06 16:12:00,89.4,51.0,29.85,WSW,248,3.0,-999.0,27,0.00,,,0.00,Wunderground v.1.15,2013-08-06 23:12:00,
2013-08-06 16:14:00,90.0,51.5,29.85,SSW,208,2.0,4.0,27,0.00,,,0.00,Wunderground v.1.15,2013-08-06 23:14:00,
2013-08-06 16:17:00,89.6,50.2,29.85,SW,225,2.0,-999.0,26,0.00,,,0.00,Wunderground v.1.15,2013-08-06 23:17:00,
2013-08-06 16:19:00,89.8,51.4,29.85,SSW,203,3.0,4.0,27,0.00,,,0.00,Wunderground v.1.15,2013-08-06 23:19:00,
2013-08-06 16:22:00,89.6,50.2,29.85,SW,225,2.0,-999.0,26,0.00,,,0.00,Wunderground v.1.15,2013-08-06 23:22:00,
2013-08-06 16:24:00,89.5,50.1,29.85,WSW,239,3.0,6.0,26,0.00,,,0.00,Wunderground v.1.15,2013-08-06 23:24:00,
2013-08-06 16:27:00,89.6,50.2,29.85,SW,225,2.0,-999.0,26,0.00,,,0.00,Wunderground v.1.15,2013-08-06 23:27:00,
2013-08-06 16:29:00,89.4,47.9,29.85,West,274,3.0,8.0,24,0.00,,,0.00,Wunderground v.1.15,2013-08-06 23:29:00,
2013-08-06 16:32:00,89.6,50.2,29.85,SW,225,2.0,-999.0,26,0.00,,,0.00,Wunderground v.1.15,2013-08-06 23:32:00,
2013-08-06 16:35:00,89.7,49.2,29.85,West,260,2.0,8.0,25,0.00,,,0.00,Wunderground v.1.15,2013-08-06 23:35:00,
2013-08-06 16:37:00,89.6,50.2,29.85,SW,225,2.0,-999.0,26,0.00,,,0.00,Wunderground v.1.15,2013-08-06 23:37:00,
2013-08-06 16:40:00,89.6,50.2,29.85,West,272,3.0,4.0,26,0.00,,,0.00,Wunderground v.1.15,2013-08-06 23:40:00,
2013-08-06 16:42:00,89.6,50.2,29.85,SW,225,2.0,-999.0,26,0.00,,,0.00,Wunderground v.1.15,2013-08-06 23:42:00,
2013-08-06 16:46:00,89.5,51.1,29.85,SW,230,3.0,5.0,27,0.00,,,0.00,Wunderground v.1.15,2013-08-06 23:46:00,
2013-08-06 16:47:00,88.4,51.1,29.85,West,270,4.0,-999.0,28,0.00,,,0.00,Wunderground v.1.15,2013-08-06 23:47:00,
2013-08-06 16:51:00,89.2,50.8,29.85,South,190,3.0,3.0,27,0.00,,,0.00,Wunderground v.1.15,2013-08-06 23:51:00,
2013-08-06 16:52:00,88.4,51.1,29.85,West,270,4.0,-999.0,28,0.00,,,0.00,Wunderground v.1.15,2013-08-06 23:52:00,
2013-08-06 16:57:00,88.6,50.3,29.85,West,259,4.0,9.0,27,0.00,,,0.00,Wunderground v.1.15,2013-08-06 23:57:00,
2013-08-06 17:02:00,88.4,51.1,29.85,West,270,4.0,-999.0,28,0.00,,,0.00,Wunderground v.1.15,2013-08-07 00:02:00,
2013-08-06 17:03:00,88.4,51.1,29.85,South,182,4.0,7.0,28,0.00,,,0.00,Wunderground v.1.15,2013-08-07 00:03:00,
2013-08-06 17:07:00,88.4,51.1,29.85,West,270,4.0,-999.0,28,0.00,,,0.00,Wunderground v.1.15,2013-08-07 00:07:00,
2013-08-06 17:08:00,88.3,50.1,29.84,SW,223,4.0,7.0,27,0.00,,,0.00,Wunderground v.1.15,2013-08-07 00:08:00,
2013-08-06 17:12:00,88.4,51.1,29.85,West,270,4.0,-999.0,28,0.00,,,0.00,Wunderground v.1.15,2013-08-07 00:12:00,
2013-08-06 17:14:00,87.9,50.7,29.84,SSW,195,4.0,6.0,28,0.00,,,0.00,Wunderground v.1.15,2013-08-07 00:14:00,
2013-08-06 17:17:00,87.2,50.1,29.85,SW,225,4.0,-999.0,28,0.00,,,0.00,Wunderground v.1.15,2013-08-07 00:17:00,
2013-08-06 17:19:00,87.5,49.4,29.85,South,187,5.0,8.0,27,0.00,,,0.00,Wunderground v.1.15,2013-08-07 00:19:00,
2013-08-06 17:22:00,87.2,50.1,29.85,SW,225,4.0,-999.0,28,0.00,,,0.00,Wunderground v.1.15,2013-08-07 00:22:00,
2013-08-06 17:24:00,87.5,50.4,29.85,WSW,249,4.0,4.0,28,0.00,,,0.00,Wunderground v.1.15,2013-08-07 00:24:00,
2013-08-06 17:27:00,87.2,50.1,29.85,SW,225,4.0,-999.0,28,0.00,,,0.00,Wunderground v.1.15,2013-08-07 00:27:00,
2013-08-06 17:29:00,87.2,49.1,29.85,SW,226,4.0,7.0,27,0.00,,,0.00,Wunderground v.1.15,2013-08-07 00:29:00,
2013-08-06 17:32:00,87.2,50.1,29.85,SW,225,4.0,-999.0,28,0.00,,,0.00,Wunderground v.1.15,2013-08-07 00:32:00,
2013-08-06 17:34:00,87.2,51.1,29.85,West,268,4.0,10.0,29,0.00,,,0.00,Wunderground v.1.15,2013-08-07 00:34:00,
2013-08-06 17:37:00,87.2,50.1,29.85,SW,225,4.0,-999.0,28,0.00,,,0.00,Wunderground v.1.15,2013-08-07 00:37:00,
2013-08-06 17:40:00,86.9,49.9,29.85,West,271,3.0,5.0,28,0.00,,,0.00,Wunderground v.1.15,2013-08-07 00:40:00,
2013-08-06 17:42:00,87.2,50.1,29.85,SW,225,4.0,-999.0,28,0.00,,,0.00,Wunderground v.1.15,2013-08-07 00:42:00,
2013-08-06 17:46:00,86.3,50.3,29.85,West,276,4.0,6.0,29,0.00,,,0.00,Wunderground v.1.15,2013-08-07 00:46:00,
2013-08-06 17:47:00,83.7,50.7,29.85,SSW,203,4.0,-999.0,32,0.00,,,0.00,Wunderground v.1.15,2013-08-07 00:47:00,
2013-08-06 17:52:00,85.6,50.6,29.85,WSW,243,4.0,5.0,30,0.00,,,0.00,Wunderground v.1.15,2013-08-07 00:52:00,
2013-08-06 17:57:00,83.7,50.7,29.85,SSW,203,4.0,-999.0,32,0.00,,,0.00,Wunderground v.1.15,2013-08-07 00:57:00,
2013-08-06 17:58:00,84.6,50.6,29.85,SW,217,4.0,9.0,31,0.00,,,0.00,Wunderground v.1.15,2013-08-07 00:58:00,
2013-08-06 18:02:00,83.7,50.7,29.85,SSW,203,4.0,-999.0,32,0.00,,,0.00,Wunderground v.1.15,2013-08-07 01:02:00,
2013-08-06 18:03:00,83.7,50.7,29.85,SW,215,4.0,8.0,32,0.00,,,0.00,Wunderground v.1.15,2013-08-07 01:03:00,
2013-08-06 18:07:00,83.7,50.7,29.85,SSW,203,4.0,-999.0,32,0.00,,,0.00,Wunderground v.1.15,2013-08-07 01:07:00,
2013-08-06 18:08:00,83.2,51.1,29.85,WSW,258,4.0,8.0,33,0.00,,,0.00,Wunderground v.1.15,2013-08-07 01:08:00,
2013-08-06 18:12:00,83.7,50.7,29.85,SSW,203,4.0,-999.0,32,0.00,,,0.00,Wunderground v.1.15,2013-08-07 01:12:00,
2013-08-06 18:13:00,83.0,51.7,29.85,SSW,199,3.0,4.0,34,0.00,,,0.00,Wunderground v.1.15,2013-08-07 01:13:00,
2013-08-06 18:17:00,81.4,50.3,29.85,SW,225,4.0,-999.0,34,0.00,,,0.00,Wunderground v.1.15,2013-08-07 01:17:00,
2013-08-06 18:18:00,82.7,50.7,29.85,WSW,239,4.0,8.0,33,0.00,,,0.00,Wunderground v.1.15,2013-08-07 01:18:00,
2013-08-06 18:22:00,81.4,50.3,29.85,SW,225,4.0,-999.0,34,0.00,,,0.00,Wunderground v.1.15,2013-08-07 01:22:00,
2013-08-06 18:24:00,82.2,51.0,29.85,WSW,250,4.0,8.0,34,0.00,,,0.00,Wunderground v.1.15,2013-08-07 01:24:00,
2013-08-06 18:27:00,81.4,50.3,29.85,SW,225,4.0,-999.0,34,0.00,,,0.00,Wunderground v.1.15,2013-08-07 01:27:00,
2013-08-06 18:29:00,81.7,50.6,29.85,SSW,208,4.0,8.0,34,0.00,,,0.00,Wunderground v.1.15,2013-08-07 01:29:00,
2013-08-06 18:32:00,81.4,50.3,29.85,SW,225,4.0,-999.0,34,0.00,,,0.00,Wunderground v.1.15,2013-08-07 01:32:00,
2013-08-06 18:34:00,81.4,51.1,29.85,SSW,194,4.0,11.0,35,0.00,,,0.00,Wunderground v.1.15,2013-08-07 01:34:00,
2013-08-06 18:37:00,81.4,50.3,29.85,SW,225,4.0,-999.0,34,0.00,,,0.00,Wunderground v.1.15,2013-08-07 01:37:00,
2013-08-06 18:39:00,81.1,51.6,29.85,SSW,209,5.0,11.0,36,0.00,,,0.00,Wunderground v.1.15,2013-08-07 01:39:00,
2013-08-06 18:42:00,81.4,50.3,29.85,SW,225,4.0,-999.0,34,0.00,,,0.00,Wunderground v.1.15,2013-08-07 01:42:00,
2013-08-06 18:45:00,80.8,51.4,29.85,SSW,210,4.0,7.0,36,0.00,,,0.00,Wunderground v.1.15,2013-08-07 01:45:00,
2013-08-06 18:47:00,79.7,53.2,29.86,SSW,203,4.0,-999.0,40,0.00,,,0.00,Wunderground v.1.15,2013-08-07 01:47:00,
2013-08-06 18:50:00,80.5,51.1,29.85,SW,218,4.0,4.0,36,0.00,,,0.00,Wunderground v.1.15,2013-08-07 01:50:00,
2013-08-06 18:52:00,79.7,53.2,29.86,SSW,203,4.0,-999.0,40,0.00,,,0.00,Wunderground v.1.15,2013-08-07 01:52:00,
2013-08-06 18:55:00,80.2,51.6,29.86,SW,228,4.0,6.0,37,0.00,,,0.00,Wunderground v.1.15,2013-08-07 01:55:00,
2013-08-06 18:57:00,79.7,53.2,29.86,SSW,203,4.0,-999.0,40,0.00,,,0.00,Wunderground v.1.15,2013-08-07 01:57:00,
2013-08-06 19:00:00,79.9,52.7,29.86,SSW,197,4.0,4.0,39,0.00,,,0.00,Wunderground v.1.15,2013-08-07 02:00:00,
2013-08-06 19:02:00,79.7,53.2,29.86,SSW,203,4.0,-999.0,40,0.00,,,0.00,Wunderground v.1.15,2013-08-07 02:02:00,
2013-08-06 19:05:00,79.5,53.1,29.86,SW,218,5.0,7.0,40,0.00,,,0.00,Wunderground v.1.15,2013-08-07 02:05:00,
2013-08-06 19:07:00,79.7,53.2,29.86,SSW,203,4.0,-999.0,40,0.00,,,0.00,Wunderground v.1.15,2013-08-07 02:07:00,
2013-08-06 19:11:00,78.9,53.2,29.86,South,187,4.0,5.0,41,0.00,,,0.00,Wunderground v.1.15,2013-08-07 02:11:00,
2013-08-06 19:12:00,79.7,53.2,29.86,SSW,203,4.0,-999.0,40,0.00,,,0.00,Wunderground v.1.15,2013-08-07 02:12:00,
2013-08-06 19:16:00,78.4,53.4,29.86,South,179,3.0,8.0,42,0.00,,,0.00,Wunderground v.1.15,2013-08-07 02:16:00,
2013-08-06 19:17:00,75.8,52.9,29.87,SSW,203,4.0,-999.0,45,0.00,,,0.00,Wunderground v.1.15,2013-08-07 02:17:00,
2013-08-06 19:22:00,77.7,54.0,29.87,SSE,160,4.0,6.0,44,0.00,,,0.00,Wunderground v.1.15,2013-08-07 02:22:00,
2013-08-06 19:27:00,76.8,52.6,29.87,West,262,5.0,8.0,43,0.00,,,0.00,Wunderground v.1.15,2013-08-07 02:27:00,
2013-08-06 19:32:00,76.0,53.1,29.87,SSW,198,5.0,11.0,45,0.00,,,0.00,Wunderground v.1.15,2013-08-07 02:32:00,
2013-08-06 19:37:00,75.3,53.1,29.87,South,188,4.0,11.0,46,0.00,,,0.00,Wunderground v.1.15,2013-08-07 02:37:00,
2013-08-06 19:42:00,75.8,52.9,29.87,SSW,203,4.0,-999.0,45,0.00,,,0.00,Wunderground v.1.15,2013-08-07 02:42:00,
2013-08-06 19:43:00,74.7,53.7,29.87,SSW,197,4.0,6.0,48,0.00,,,0.00,Wunderground v.1.15,2013-08-07 02:43:00,
2013-08-06 19:47:00,73.6,54.4,29.87,South,180,3.0,-999.0,51,0.00,,,0.00,Wunderground v.1.15,2013-08-07 02:47:00,
2013-08-06 19:48:00,74.3,53.9,29.88,SSE,167,3.0,6.0,49,0.00,,,0.00,Wunderground v.1.15,2013-08-07 02:48:00,
2013-08-06 19:52:00,73.6,54.4,29.87,South,180,3.0,-999.0,51,0.00,,,0.00,Wunderground v.1.15,2013-08-07 02:52:00,
2013-08-06 19:54:00,74.0,54.2,29.87,SW,233,2.0,4.0,50,0.00,,,0.00,Wunderground v.1.15,2013-08-07 02:54:00,
2013-08-06 19:57:00,73.6,54.4,29.87,South,180,3.0,-999.0,51,0.00,,,0.00,Wunderground v.1.15,2013-08-07 02:57:00,
2013-08-06 20:00:00,73.8,54.5,29.87,SSE,167,3.0,4.0,51,0.00,,,0.00,Wunderground v.1.15,2013-08-07 03:00:00,
2013-08-06 20:02:00,73.6,54.4,29.87,South,180,3.0,-999.0,51,0.00,,,0.00,Wunderground v.1.15,2013-08-07 03:02:00,
2013-08-06 20:05:00,73.5,54.3,29.87,South,177,3.0,6.0,51,0.00,,,0.00,Wunderground v.1.15,2013-08-07 03:05:00,
2013-08-06 20:07:00,73.6,54.4,29.87,South,180,3.0,-999.0,51,0.00,,,0.00,Wunderground v.1.15,2013-08-07 03:07:00,
2013-08-06 20:10:00,73.3,54.6,29.88,South,181,3.0,3.0,52,0.00,,,0.00,Wunderground v.1.15,2013-08-07 03:10:00,
2013-08-06 20:12:00,73.6,54.4,29.87,South,180,3.0,-999.0,51,0.00,,,0.00,Wunderground v.1.15,2013-08-07 03:12:00,
2013-08-06 20:15:00,73.1,54.4,29.87,South,170,3.0,6.0,52,0.00,,,0.00,Wunderground v.1.15,2013-08-07 03:15:00,
2013-08-06 20:17:00,71.9,54.3,29.88,South,180,3.0,-999.0,54,0.00,,,0.00,Wunderground v.1.15,2013-08-07 03:17:00,
2013-08-06 20:20:00,72.8,54.7,29.88,South,181,3.0,3.0,53,0.00,,,0.00,Wunderground v.1.15,2013-08-07 03:20:00,
2013-08-06 20:22:00,71.9,54.3,29.88,South,180,3.0,-999.0,54,0.00,,,0.00,Wunderground v.1.15,2013-08-07 03:22:00,
2013-08-06 20:25:00,72.5,54.4,29.88,South,190,3.0,4.0,53,0.00,,,0.00,Wunderground v.1.15,2013-08-07 03:25:00,
2013-08-06 20:27:00,71.9,54.3,29.88,South,180,3.0,-999.0,54,0.00,,,0.00,Wunderground v.1.15,2013-08-07 03:27:00,
2013-08-06 20:31:00,72.1,54.5,29.88,SSW,202,3.0,12.0,54,0.00,,,0.00,Wunderground v.1.15,2013-08-07 03:31:00,
2013-08-06 20:32:00,71.9,54.3,29.88,South,180,3.0,-999.0,54,0.00,,,0.00,Wunderground v.1.15,2013-08-07 03:32:00,
2013-08-06 20:37:00,71.7,54.7,29.88,SW,214,3.0,12.0,55,0.00,,,0.00,Wunderground v.1.15,2013-08-07 03:37:00,
2013-08-06 20:42:00,71.9,54.3,29.88,South,180,3.0,-999.0,54,0.00,,,0.00,Wunderground v.1.15,2013-08-07 03:42:00,
2013-08-06 20:43:00,71.3,54.8,29.88,SSW,204,3.0,6.0,56,0.00,,,0.00,Wunderground v.1.15,2013-08-07 03:43:00,
2013-08-06 20:47:00,69.9,54.9,29.89,South,180,3.0,-999.0,59,0.00,,,0.00,Wunderground v.1.15,2013-08-07 03:47:00,
2013-08-06 20:48:00,71.0,54.5,29.89,SSW,197,3.0,6.0,56,0.00,,,0.00,Wunderground v.1.15,2013-08-07 03:48:00,
2013-08-06 20:52:00,69.9,54.9,29.89,South,180,3.0,-999.0,59,0.00,,,0.00,Wunderground v.1.15,2013-08-07 03:52:00,
2013-08-06 20:53:00,70.6,54.6,29.89,SE,146,3.0,5.0,57,0.00,,,0.00,Wunderground v.1.15,2013-08-07 03:53:00,
2013-08-06 20:57:00,69.9,54.9,29.89,South,180,3.0,-999.0,59,0.00,,,0.00,Wunderground v.1.15,2013-08-07 03:57:00,
2013-08-06 20:59:00,70.3,54.8,29.89,South,185,4.0,11.0,58,0.00,,,0.00,Wunderground v.1.15,2013-08-07 03:59:00,
2013-08-06 21:01:00,70.1,55.1,29.89,SSW,195,4.0,4.0,59,0.00,,,0.00,Wunderground v.1.15,2013-08-07 04:01:00,
2013-08-06 21:02:00,69.9,54.9,29.89,South,180,3.0,-999.0,59,0.00,,,0.00,Wunderground v.1.15,2013-08-07 04:02:00,
2013-08-06 21:04:00,69.8,54.8,29.89,South,185,4.0,7.0,59,0.00,,,0.00,Wunderground v.1.15,2013-08-07 04:04:00,
2013-08-06 21:05:00,69.8,54.8,29.89,South,185,4.0,7.0,59,0.00,,,0.00,Wunderground v.1.15,2013-08-07 04:05:00,
2013-08-06 21:07:00,69.9,54.9,29.89,South,180,3.0,-999.0,59,0.00,,,0.00,Wunderground v.1.15,2013-08-07 04:07:00,
2013-08-06 21:09:00,69.4,54.9,29.90,South,183,4.0,7.0,60,0.00,,,0.00,Wunderground v.1.15,2013-08-07 04:09:00,
2013-08-06 21:12:00,69.9,54.9,29.89,South,180,3.0,-999.0,59,0.00,,,0.00,Wunderground v.1.15,2013-08-07 04:12:00,
2013-08-06 21:15:00,69.0,55.0,29.90,South,187,3.0,4.0,61,0.00,,,0.00,Wunderground v.1.15,2013-08-07 04:15:00,
2013-08-06 21:17:00,67.4,54.8,29.91,South,180,3.0,-999.0,64,0.00,,,0.00,Wunderground v.1.15,2013-08-07 04:17:00,
2013-08-06 21:20:00,68.5,54.5,29.91,SE,145,2.0,5.0,61,0.00,,,0.00,Wunderground v.1.15,2013-08-07 04:20:00,
2013-08-06 21:22:00,67.4,54.8,29.91,South,180,3.0,-999.0,64,0.00,,,0.00,Wunderground v.1.15,2013-08-07 04:22:00,
2013-08-06 21:26:00,68.0,54.5,29.91,SSE,157,3.0,8.0,62,0.00,,,0.00,Wunderground v.1.15,2013-08-07 04:26:00,
2013-08-06 21:27:00,67.4,54.8,29.91,South,180,3.0,-999.0,64,0.00,,,0.00,Wunderground v.1.15,2013-08-07 04:27:00,
2013-08-06 21:31:00,67.5,54.5,29.91,SSE,163,5.0,10.0,63,0.00,,,0.00,Wunderground v.1.15,2013-08-07 04:31:00,
2013-08-06 21:32:00,67.4,54.8,29.91,South,180,3.0,-999.0,64,0.00,,,0.00,Wunderground v.1.15,2013-08-07 04:32:00,
2013-08-06 21:36:00,67.2,54.6,29.91,SSW,192,4.0,10.0,64,0.00,,,0.00,Wunderground v.1.15,2013-08-07 04:36:00,
2013-08-06 21:37:00,67.4,54.8,29.91,South,180,3.0,-999.0,64,0.00,,,0.00,Wunderground v.1.15,2013-08-07 04:37:00,
2013-08-06 21:42:00,66.8,54.7,29.91,WSW,239,4.0,7.0,65,0.00,,,0.00,Wunderground v.1.15,2013-08-07 04:42:00,
2013-08-06 21:47:00,66.5,54.4,29.91,SSW,195,4.0,7.0,65,0.00,,,0.00,Wunderground v.1.15,2013-08-07 04:47:00,
2013-08-06 21:52:00,66.2,54.5,29.91,SSW,193,4.0,6.0,66,0.00,,,0.00,Wunderground v.1.15,2013-08-07 04:52:00,
2013-08-06 21:57:00,66.0,54.7,29.91,SSW,201,3.0,6.0,67,0.00,,,0.00,Wunderground v.1.15,2013-08-07 04:57:00,
2013-08-06 22:02:00,65.7,54.4,29.92,South,180,3.0,-999.0,67,0.00,,,0.00,Wunderground v.1.15,2013-08-07 05:02:00,
2013-08-06 22:03:00,65.7,54.4,29.92,SSE,160,3.0,6.0,67,0.00,,,0.00,Wunderground v.1.15,2013-08-07 05:03:00,
2013-08-06 22:07:00,65.7,54.4,29.92,South,180,3.0,-999.0,67,0.00,,,0.00,Wunderground v.1.15,2013-08-07 05:07:00,
2013-08-06 22:09:00,65.4,54.2,29.92,SSW,208,3.0,6.0,67,0.00,,,0.00,Wunderground v.1.15,2013-08-07 05:09:00,
2013-08-06 22:12:00,65.7,54.4,29.92,South,180,3.0,-999.0,67,0.00,,,0.00,Wunderground v.1.15,2013-08-07 05:12:00,
2013-08-06 22:14:00,65.2,54.4,29.92,SSE,168,3.0,6.0,68,0.00,,,0.00,Wunderground v.1.15,2013-08-07 05:14:00,
2013-08-06 22:17:00,64.3,54.3,29.93,South,180,3.0,-999.0,70,0.00,,,0.00,Wunderground v.1.15,2013-08-07 05:17:00,
2013-08-06 22:20:00,64.9,54.1,29.92,SW,218,3.0,3.0,68,0.00,,,0.00,Wunderground v.1.15,2013-08-07 05:20:00,
2013-08-06 22:22:00,64.3,54.3,29.93,South,180,3.0,-999.0,70,0.00,,,0.00,Wunderground v.1.15,2013-08-07 05:22:00,
2013-08-06 22:26:00,64.7,54.3,29.92,SSE,151,3.0,5.0,69,0.00,,,0.00,Wunderground v.1.15,2013-08-07 05:26:00,
2013-08-06 22:27:00,64.3,54.3,29.93,South,180,3.0,-999.0,70,0.00,,,0.00,Wunderground v.1.15,2013-08-07 05:27:00,
2013-08-06 22:31:00,64.4,54.4,29.92,South,177,4.0,13.0,70,0.00,,,0.00,Wunderground v.1.15,2013-08-07 05:31:00,
2013-08-06 22:32:00,64.3,54.3,29.93,South,180,3.0,-999.0,70,0.00,,,0.00,Wunderground v.1.15,2013-08-07 05:32:00,
2013-08-06 22:37:00,64.1,54.1,29.93,South,190,5.0,13.0,70,0.00,,,0.00,Wunderground v.1.15,2013-08-07 05:37:00,
2013-08-06 22:42:00,63.7,54.1,29.93,South,170,4.0,8.0,71,0.00,,,0.00,Wunderground v.1.15,2013-08-07 05:42:00,
2013-08-06 22:47:00,63.5,53.9,29.93,South,188,4.0,9.0,71,0.00,,,0.00,Wunderground v.1.15,2013-08-07 05:47:00,
2013-08-06 22:52:00,63.2,54.0,29.93,South,177,5.0,6.0,72,0.00,,,0.00,Wunderground v.1.15,2013-08-07 05:52:00,
2013-08-06 22:57:00,62.9,54.1,29.93,SSE,158,4.0,-999.0,73,0.00,,,0.00,Wunderground v.1.15,2013-08-07 05:57:00,
2013-08-06 22:58:00,63.0,53.8,29.93,South,170,5.0,9.0,72,0.00,,,0.00,Wunderground v.1.15,2013-08-07 05:58:00,
2013-08-06 23:02:00,62.9,54.1,29.93,SSE,158,4.0,-999.0,73,0.00,,,0.00,Wunderground v.1.15,2013-08-07 06:02:00,
2013-08-06 23:03:00,62.9,54.1,29.93,South,190,4.0,7.0,73,0.00,,,0.00,Wunderground v.1.15,2013-08-07 06:03:00,
2013-08-06 23:07:00,62.9,54.1,29.93,SSE,158,4.0,-999.0,73,0.00,,,0.00,Wunderground v.1.15,2013-08-07 06:07:00,
2013-08-06 23:08:00,62.7,53.9,29.93,SSE,164,4.0,8.0,73,0.00,,,0.00,Wunderground v.1.15,2013-08-07 06:08:00,
2013-08-06 23:12:00,62.9,54.1,29.93,SSE,158,4.0,-999.0,73,0.00,,,0.00,Wunderground v.1.15,2013-08-07 06:12:00,
2013-08-06 23:13:00,62.6,53.8,29.93,SSE,154,4.0,5.0,73,0.00,,,0.00,Wunderground v.1.15,2013-08-07 06:13:00,
2013-08-06 23:17:00,62.0,53.6,29.94,South,180,4.0,-999.0,74,0.00,,,0.00,Wunderground v.1.15,2013-08-07 06:17:00,
2013-08-06 23:19:00,62.5,53.7,29.93,South,191,4.0,6.0,73,0.00,,,0.00,Wunderground v.1.15,2013-08-07 06:19:00,
2013-08-06 23:22:00,62.0,53.6,29.94,South,180,4.0,-999.0,74,0.00,,,0.00,Wunderground v.1.15,2013-08-07 06:22:00,
2013-08-06 23:24:00,62.3,53.9,29.94,South,183,4.0,6.0,74,0.00,,,0.00,Wunderground v.1.15,2013-08-07 06:24:00,
2013-08-06 23:27:00,62.0,53.6,29.94,South,180,4.0,-999.0,74,0.00,,,0.00,Wunderground v.1.15,2013-08-07 06:27:00,
2013-08-06 23:30:00,62.2,53.8,29.94,SSE,152,3.0,5.0,74,0.00,,,0.00,Wunderground v.1.15,2013-08-07 06:30:00,
2013-08-06 23:32:00,62.0,53.6,29.94,South,180,4.0,-999.0,74,0.00,,,0.00,Wunderground v.1.15,2013-08-07 06:32:00,
2013-08-06 23:35:00,62.0,53.6,29.94,SE,145,3.0,10.0,74,0.00,,,0.00,Wunderground v.1.15,2013-08-07 06:35:00,
2013-08-06 23:37:00,62.0,53.6,29.94,South,180,4.0,-999.0,74,0.00,,,0.00,Wunderground v.1.15,2013-08-07 06:37:00,
2013-08-06 23:40:00,61.9,53.9,29.94,SSE,156,4.0,4.0,75,0.00,,,0.00,Wunderground v.1.15,2013-08-07 06:40:00,
2013-08-06 23:42:00,62.0,53.6,29.94,South,180,4.0,-999.0,74,0.00,,,0.00,Wunderground v.1.15,2013-08-07 06:42:00,
2013-08-06 23:46:00,61.7,53.7,29.94,SSW,199,4.0,7.0,75,0.00,,,0.00,Wunderground v.1.15,2013-08-07 06:46:00,
2013-08-06 23:47:00,61.1,53.8,29.94,South,180,4.0,-999.0,77,0.00,,,0.00,Wunderground v.1.15,2013-08-07 06:47:00,
2013-08-06 23:51:00,61.5,53.5,29.94,South,182,4.0,4.0,75,0.00,,,0.00,Wunderground v.1.15,2013-08-07 06:51:00,
2013-08-06 23:52:00,61.1,53.8,29.94,South,180,4.0,-999.0,77,0.00,,,0.00,Wunderground v.1.15,2013-08-07 06:52:00,
2013-08-06 23:57:00,61.3,53.7,29.94,SE,138,3.0,8.0,76,0.00,,,0.00,Wunderground v.1.15,2013-08-07 06:57:00,